EW0594 Auckland NZ current weather conditions

sailwx.info

Wind from 214 at 4 knots gusting 8

Air temperature 19.4° C
Dewpoint 17.0° C

Last reported at 2020-Jan-26 08:00 UTC.
Time now 2020-Jan-26 08:46 UTC

Location: S 36°55' E 174°46'.
View on Google Maps.

See reports from other nearby stations

  
Tides and Currents Weather Stations Pressure Air Temp Water Temp Dewpoint Dewpoint Depression Visibility Wind Speed Wind Dir Waves Ship Positions
date/time (UTC)wind fromknots sea level pressurealtimeterstation pressurevisibilityair tempwater tempwave heightnotes
2020-Jan-26 08:00 214 4 gusting 8 19.4
2020-Jan-26 07:50 212 4 gusting 10 19.4
2020-Jan-26 07:40 214 4 gusting 10 19.4
2020-Jan-26 07:30 217 4 gusting 8 20.0
2020-Jan-26 07:20 213 5 gusting 12 20.0
2020-Jan-26 07:10 216 5 gusting 9 20.0
2020-Jan-26 07:00 218 6 gusting 12 20.6
2020-Jan-26 06:50 213 5 gusting 8 21.1
2020-Jan-26 06:40 213 5 gusting 12 21.1
2020-Jan-26 06:30 210 5 gusting 11 21.7
2020-Jan-26 06:20 208 5 gusting 11 21.7
2020-Jan-26 06:10 209 6 gusting 10 21.7
2020-Jan-26 06:00 214 5 gusting 11 22.2
2020-Jan-26 05:50 215 6 gusting 13 22.2
2020-Jan-26 05:40 218 5 gusting 13 22.2
2020-Jan-26 05:30 213 6 gusting 11 22.2
2020-Jan-26 05:20 212 6 gusting 14 22.2
2020-Jan-26 05:10 214 6 gusting 13 22.8
2020-Jan-26 05:00 220 6 gusting 15 22.8
2020-Jan-26 04:50 219 6 gusting 13 22.8
2020-Jan-26 04:40 223 7 gusting 15 22.2
2020-Jan-26 04:30 215 6 gusting 16 22.8
2020-Jan-26 04:20 214 7 gusting 17 22.8
2020-Jan-26 04:10 215 8 gusting 18 22.8
2020-Jan-26 04:00 210 8 gusting 15 22.8
2020-Jan-26 03:50 211 6 gusting 16 23.3
2020-Jan-26 03:40 216 7 gusting 13 23.3
2020-Jan-26 03:30 217 8 gusting 16 22.8
2020-Jan-26 03:20 210 7 gusting 19 22.8
2020-Jan-26 03:10 211 6 gusting 13 23.3
2020-Jan-26 03:00 211 6 gusting 15 23.3
2020-Jan-26 02:50 212 6 gusting 13 23.3
2020-Jan-26 02:40 217 6 gusting 13 23.3
2020-Jan-26 02:30 221 6 gusting 15 23.3
2020-Jan-26 02:20 213 6 gusting 13 23.3
2020-Jan-26 02:10 223 5 gusting 12 23.3
2020-Jan-26 02:00 217 5 gusting 13 23.3
2020-Jan-26 01:50 217 5 gusting 14 23.3
2020-Jan-26 01:40 217 5 gusting 12 23.9
2020-Jan-26 01:30 215 5 gusting 12 24.4
2020-Jan-26 01:20 224 3 gusting 13 24.4
2020-Jan-26 01:10 223 5 gusting 12 23.9
2020-Jan-26 01:00 211 4 gusting 10 24.4
2020-Jan-26 00:50 211 6 gusting 13 23.3
2020-Jan-26 00:40 217 5 gusting 12 23.9
2020-Jan-26 00:30 212 6 gusting 13 23.3
2020-Jan-26 00:20 213 5 gusting 13 23.9
2020-Jan-26 00:10 213 4 gusting 12 24.4
2020-Jan-26 00:00 214 5 gusting 13 23.9
2020-Jan-25 23:50 215 6 gusting 12 23.3
2020-Jan-25 23:40 213 6 gusting 14 23.3
2020-Jan-25 23:30 220 6 gusting 13 23.3
2020-Jan-25 23:20 217 5 gusting 11 23.3
2020-Jan-25 23:10 222 5 gusting 12 23.3
2020-Jan-25 23:00 217 6 gusting 13 22.8
2020-Jan-25 22:50 215 4 gusting 11 23.3
2020-Jan-25 22:40 213 6 gusting 13 22.8
2020-Jan-25 22:30 212 5 gusting 12 22.8
2020-Jan-25 22:20 213 6 gusting 11 22.8
2020-Jan-25 22:10 215 6 gusting 12 22.8
2020-Jan-25 22:00 214 6 gusting 13 22.8
2020-Jan-25 21:50 221 5 gusting 11 22.2
2020-Jan-25 21:40 216 5 gusting 9 22.2
2020-Jan-25 21:30 212 6 gusting 11 22.2
2020-Jan-25 21:20 213 5 gusting 10 22.2
2020-Jan-25 21:10 212 4 gusting 11 22.2
2020-Jan-25 21:00 213 4 gusting 9 22.2
2020-Jan-25 20:50 210 4 gusting 10 21.1
2020-Jan-25 20:40 217 3 gusting 12 21.1
2020-Jan-25 20:30 215 4 gusting 10 21.1
2020-Jan-25 20:20 208 4 gusting 9 21.1
2020-Jan-25 20:10 213 4 gusting 9 21.1
2020-Jan-25 20:00 215 4 gusting 8 21.1
2020-Jan-25 19:50 220 3 gusting 9 20.6
2020-Jan-25 19:40 215 4 gusting 9 20.6
2020-Jan-25 19:30 207 4 gusting 9 20.6
2020-Jan-25 19:20 209 4 gusting 11 20.6
2020-Jan-25 19:10 215 5 gusting 10 20.6
2020-Jan-25 19:00 216 4 gusting 8 20.6
2020-Jan-25 18:50 209 2 gusting 10 20.0
2020-Jan-25 18:40 204 2 gusting 7 20.0
2020-Jan-25 18:30 202 2 gusting 6 20.0
2020-Jan-25 18:20 206 1 gusting 9 20.0
2020-Jan-25 18:10 207 1 gusting 6 20.0
2020-Jan-25 18:00 212 2 gusting 6 20.0
2020-Jan-25 17:50 216 3 gusting 8 20.0
2020-Jan-25 17:40 221 3 gusting 7 19.4
2020-Jan-25 17:30 216 3 gusting 9 20.0
2020-Jan-25 17:20 217 3 gusting 9 19.4
2020-Jan-25 17:10 215 3 gusting 10 20.0
2020-Jan-25 17:00 212 3 gusting 7 20.0
2020-Jan-25 16:50 213 2 gusting 6 20.0
2020-Jan-25 16:40 214 2 gusting 6 20.0
2020-Jan-25 16:30 213 1 gusting 5 20.0
2020-Jan-25 16:20 214 2 gusting 5 20.0
2020-Jan-25 16:10 211 2 gusting 7 20.0
2020-Jan-25 16:00 221 3 gusting 8 20.0
2020-Jan-25 15:50 217 4 gusting 8 20.0
2020-Jan-25 15:40 214 4 gusting 8 20.0
2020-Jan-25 15:30 211 4 gusting 10 20.0
2020-Jan-25 15:20 215 5 gusting 9 20.0
2020-Jan-25 15:10 213 4 gusting 10 20.0
2020-Jan-25 15:00 215 4 gusting 11 20.0
2020-Jan-25 14:50 213 4 gusting 9 20.0
2020-Jan-25 14:40 216 3 gusting 9 20.0
2020-Jan-25 14:30 208 3 gusting 11 20.0
2020-Jan-25 14:20 211 3 gusting 8 20.0
2020-Jan-25 14:10 215 3 gusting 9 20.0
2020-Jan-25 14:00 216 4 gusting 11 19.4
2020-Jan-25 13:50 212 3 gusting 10 20.0
2020-Jan-25 13:40 213 4 gusting 11 20.0
2020-Jan-25 13:30 216 3 gusting 10 20.0
2020-Jan-25 13:20 216 3 gusting 7 20.0
2020-Jan-25 13:10 214 3 gusting 8 20.0
2020-Jan-25 13:00 202 2 gusting 8 20.0
2020-Jan-25 12:50 209 5 gusting 13 20.0
2020-Jan-25 12:40 216 4 gusting 11 20.0
2020-Jan-25 12:30 220 4 gusting 10 20.0
2020-Jan-25 12:20 209 4 gusting 10 20.0
2020-Jan-25 12:10 213 4 gusting 9 20.0
2020-Jan-25 12:00 215 4 gusting 11 20.0
2020-Jan-25 11:50 213 5 gusting 9 20.0
2020-Jan-25 11:40 211 5 gusting 12 20.0
2020-Jan-25 11:30 211 4 gusting 10 20.0
2020-Jan-25 11:20 218 4 gusting 11 20.0
2020-Jan-25 11:10 217 4 gusting 11 20.0
2020-Jan-25 11:00 209 3 gusting 9 20.0
2020-Jan-25 10:50 212 4 gusting 9 20.6
2020-Jan-25 10:40 217 4 gusting 10 20.6
2020-Jan-25 10:30 220 4 gusting 11 20.6
2020-Jan-25 10:20 216 3 gusting 9 20.6
2020-Jan-25 10:10 217 3 gusting 8 20.6
2020-Jan-25 10:00 214 4 gusting 13 20.6
2020-Jan-25 09:50 224 4 gusting 10 20.6
2020-Jan-25 09:40 222 4 gusting 8 20.6
2020-Jan-25 09:30 218 3 gusting 8 20.6
2020-Jan-25 09:20 216 3 gusting 8 21.1
2020-Jan-25 09:10 218 3 gusting 10 21.1
2020-Jan-25 09:00 213 2 gusting 6 21.1
2020-Jan-25 08:50 216 2 gusting 8 21.1
2020-Jan-25 08:40 217 4 gusting 12 20.6
2020-Jan-25 08:30 208 3 gusting 11 21.1
2020-Jan-25 08:20 211 3 gusting 8 21.1
2020-Jan-25 08:10 214 4 gusting 11 21.1
2020-Jan-25 08:00 215 4 gusting 10 21.1
2020-Jan-25 07:50 226 5 gusting 14 20.6
2020-Jan-25 07:40 223 5 gusting 12 20.6
2020-Jan-25 07:30 215 5 gusting 12 20.6
2020-Jan-25 07:20 215 5 gusting 11 20.6
2020-Jan-25 07:10 220 5 gusting 11 20.6
2020-Jan-25 07:00 218 5 gusting 11 20.6
2020-Jan-25 06:50 217 5 gusting 12 20.6
2020-Jan-25 06:40 216 5 gusting 11 21.1
2020-Jan-25 06:30 216 5 gusting 13 21.1
2020-Jan-25 06:20 212 5 gusting 13 21.7
2020-Jan-25 06:10 217 5 gusting 13 21.7
2020-Jan-25 06:00 216 5 gusting 12 21.7
2020-Jan-25 05:50 218 6 gusting 13 21.7
2020-Jan-25 05:40 219 6 gusting 13 22.2
2020-Jan-25 05:30 219 6 gusting 18 22.2
2020-Jan-25 05:20 213 6 gusting 12 22.2
2020-Jan-25 05:10 218 6 gusting 14 22.2
2020-Jan-25 05:00 220 6 gusting 14 22.8
2020-Jan-25 04:50 214 5 gusting 12 22.8
2020-Jan-25 04:40 220 6 gusting 13 22.8
2020-Jan-25 04:30 215 6 gusting 14 22.8
2020-Jan-25 04:20 217 6 gusting 13 22.8
2020-Jan-25 04:10 217 6 gusting 14 22.8
2020-Jan-25 04:00 221 5 gusting 11 23.3
2020-Jan-25 03:50 211 4 gusting 14 23.9
2020-Jan-25 03:40 213 5 gusting 10 23.3
2020-Jan-25 03:30 213 6 gusting 14 23.3
2020-Jan-25 03:20 212 6 gusting 13 23.3
2020-Jan-25 03:10 220 6 gusting 14 23.3
2020-Jan-25 03:00 216 6 gusting 13 23.3
2020-Jan-25 02:50 219 5 gusting 15 23.9
2020-Jan-25 02:40 207 6 gusting 14 23.3
2020-Jan-25 02:30 218 6 gusting 14 23.3
2020-Jan-25 02:20 210 7 gusting 15 22.8
2020-Jan-25 02:10 210 6 gusting 13 23.3
2020-Jan-25 02:00 212 6 gusting 13 22.8
2020-Jan-25 01:50 220 6 gusting 14 23.3
2020-Jan-25 01:40 222 5 gusting 15 23.3
2020-Jan-25 01:30 226 4 gusting 13 23.3
2020-Jan-25 01:20 222 5 gusting 9 23.3
2020-Jan-25 01:10 223 3 gusting 10 23.3
2020-Jan-25 01:00 224 6 gusting 13 22.8
2020-Jan-25 00:50 217 5 gusting 12 22.8
2020-Jan-25 00:40 227 6 gusting 12 22.2
2020-Jan-25 00:30 220 5 gusting 10 22.8
2020-Jan-25 00:20 223 4 gusting 12 22.8
2020-Jan-25 00:10 222 6 gusting 13 22.2
2020-Jan-25 00:00 225 4 gusting 12 22.2
2020-Jan-24 23:50 230 4 gusting 9 22.8
2020-Jan-24 23:40 219 5 gusting 12 22.8
2020-Jan-24 23:30 220 4 gusting 9 22.8
2020-Jan-24 23:20 228 4 gusting 12 22.2
2020-Jan-24 23:10 212 5 gusting 11 22.2
2020-Jan-24 23:00 221 3 gusting 9 22.2
2020-Jan-24 22:50 221 3 gusting 10 21.7
2020-Jan-24 22:40 216 4 gusting 9 21.7
2020-Jan-24 22:30 216 3 gusting 9 21.7
2020-Jan-24 22:20 223 4 gusting 9 21.1
2020-Jan-24 22:10 224 2 gusting 6 22.2
2020-Jan-24 22:00 197 2 gusting 6 21.1
2020-Jan-24 21:50 219 3 gusting 7 21.1
2020-Jan-24 21:40 212 3 gusting 6 21.1
2020-Jan-24 21:30 224 3 gusting 9 20.6
2020-Jan-24 21:20 210 3 gusting 9 20.6
2020-Jan-24 21:10 213 3 gusting 8 20.6
2020-Jan-24 21:00 216 3 gusting 7 20.0
2020-Jan-24 20:50 221 3 gusting 8 19.4
2020-Jan-24 20:40 208 3 gusting 9 19.4
2020-Jan-24 20:30 221 1 gusting 6 20.0
2020-Jan-24 20:20 222 1 gusting 5 19.4
2020-Jan-24 20:10 219 3 gusting 7 19.4
2020-Jan-24 20:00 211 2 gusting 6 18.9
2020-Jan-24 19:50 222 1 gusting 4 18.9
2020-Jan-24 19:40 215 1 gusting 3 18.9
2020-Jan-24 19:30 204 1 gusting 3 18.9
2020-Jan-24 19:20 161 0 gusting 2 18.9
2020-Jan-24 19:10 147 0 gusting 2 18.9
2020-Jan-24 19:00 159 18.3
2020-Jan-24 18:50 154 0 gusting 1 18.3
2020-Jan-24 18:40 147 0 gusting 2 17.8
2020-Jan-24 18:30 144 1 gusting 2 17.8
2020-Jan-24 18:20 154 0 gusting 1 17.8
2020-Jan-24 18:10 151 0 gusting 1 17.8
2020-Jan-24 18:00 157 17.8
2020-Jan-24 17:50 146 17.8
2020-Jan-24 17:40 158 17.8
2020-Jan-24 17:30 157 17.8
2020-Jan-24 17:20 176 0 gusting 2 17.8
2020-Jan-24 17:10 192 0 gusting 1 17.8
2020-Jan-24 17:00 192 17.8
2020-Jan-24 16:50 192 17.8
2020-Jan-24 16:40 192 17.8
2020-Jan-24 16:30 192 17.8
2020-Jan-24 16:20 192 17.8
2020-Jan-24 16:10 192 17.8
2020-Jan-24 16:00 192 17.8
2020-Jan-24 15:50 187 0 gusting 1 18.3
2020-Jan-24 15:40 178 0 gusting 2 18.3
2020-Jan-24 15:30 191 0 gusting 3 18.3
2020-Jan-24 15:20 194 0 gusting 2 18.3
2020-Jan-24 15:10 193 0 gusting 2 18.3
2020-Jan-24 15:00 207 1 gusting 3 18.3
2020-Jan-24 14:50 212 0 gusting 3 18.3
2020-Jan-24 14:40 200 0 gusting 2 18.3
2020-Jan-24 14:30 199 18.3
2020-Jan-24 14:20 199 18.3
2020-Jan-24 14:10 200 18.3
2020-Jan-24 14:00 199 18.3
2020-Jan-24 13:50 199 0 gusting 1 18.3
2020-Jan-24 13:40 199 0 gusting 2 18.3
2020-Jan-24 13:30 167 18.9
2020-Jan-24 13:20 167 18.9
2020-Jan-24 13:10 191 0 gusting 4 18.9
2020-Jan-24 13:00 196 18.9
2020-Jan-24 12:50 196 18.9
2020-Jan-24 12:40 194 0 gusting 2 19.4
2020-Jan-24 12:30 206 1 gusting 5 19.4
2020-Jan-24 12:20 214 2 gusting 6 19.4
2020-Jan-24 12:10 217 2 gusting 7 19.4
2020-Jan-24 12:00 215 2 gusting 6 19.4
2020-Jan-24 11:50 216 2 gusting 7 19.4
2020-Jan-24 11:40 242 1 gusting 4 19.4
2020-Jan-24 11:30 255 0 gusting 1 18.9
2020-Jan-24 11:20 256 0 gusting 2 18.9
2020-Jan-24 11:10 259 0 gusting 2 19.4
2020-Jan-24 11:00 259 0 gusting 2 19.4
2020-Jan-24 10:50 259 0 gusting 1 19.4
2020-Jan-24 10:40 259 18.9
2020-Jan-24 10:30 259 0 gusting 1 19.4
2020-Jan-24 10:20 259 19.4
2020-Jan-24 10:10 259 19.4
2020-Jan-24 10:00 254 0 gusting 1 19.4
2020-Jan-24 09:50 222 0 gusting 1 19.4
2020-Jan-24 09:40 224 1 gusting 3 20.0
2020-Jan-24 09:30 212 1 gusting 4 20.0
2020-Jan-24 09:20 226 1 gusting 4 20.0
2020-Jan-24 09:10 216 1 gusting 4 20.0
2020-Jan-24 09:00 210 1 gusting 3 20.0
2020-Jan-24 08:50 209 0 gusting 4 20.0
2020-Jan-24 08:40 209 1 gusting 3 20.0
2020-Jan-24 08:30 219 0 gusting 3 20.6
2020-Jan-24 08:20 220 1 gusting 4 20.6
2020-Jan-24 08:10 224 2 gusting 7 20.6
2020-Jan-24 08:00 221 2 gusting 6 21.1